Location: Unspecified
(0.0000°N, 0.0000°E)
Time: 23:06:29
(UTC+00:00)

Altair 2 - Pass Details

Date: 04 November 2024
Orbit: 1017 x 1126 km, 90.0° (Epoch: 06 December)

Event Time Altitude Azimuth Distance (km) Brightness Sun altitude
Exits shadow 02:42:46 27° 147° (SSE) 1,978 10.3 -43.1°
Drops below altitude 10° 02:45:59 10° 164° (SSE) 2,974 11.3 -42.4°
Sets 02:48:41 0° 170° (S) 3,921 12.0 -41.8°
